GW5654 Weather Reports


Display with metric or nautical units.
time (UTC)temp
F
wind
direction
speed
MPH
gust
MPH
rain 1hr
in
rain 24hr
in
rain mn
in
humidity
%
barometer
mb
20260510143108 57 285 3.0 5.0 0.00 0.26 0.00 82 1011.9
20260510141559 56 240 2.0 4.0 0.00 0.26 0.00 84 1011.7
20260510140056 55 288 1.0 3.0 0.00 0.26 0.00 85 1011.5
20260510134559 55 73 2.0 8.0 0.00 0.29 0.00 85 1011.4
20260510133057 56 235 1.0 4.0 0.00 0.29 0.00 85 1011.4
20260510131556 55 207 1.0 7.0 0.00 0.29 0.00 85 1011.3
20260510130057 55 265 1.0 5.0 0.00 0.29 0.00 87 1011.1
20260510124610 54 236 1.0 6.0 0.00 0.31 0.00 89 1010.9
20260510123056 53 196 1.0 5.0 0.00 0.31 0.00 89 1011.0
20260510121558 53 297 2.0 5.0 0.00 0.31 0.00 90 1011.1
20260510120058 53 0 1.0 4.0 0.00 0.31 0.00 91 1011.0
20260510114606 52 223 1.0 5.0 0.00 0.31 0.00 91 1010.8
20260510113057 52 159 1.0 6.0 0.00 0.31 0.00 91 1010.8
20260510111557 52 289 1.0 5.0 0.00 0.31 0.00 92 1010.9
20260510110101 52 157 2.0 6.0 0.00 0.31 0.00 92 1010.4
20260510104614 51 157 1.0 4.0 0.00 0.31 0.00 92 1010.3
20260510103103 51 243 1.0 3.0 0.00 0.31 0.00 92 1010.2
20260510101558 51 219 0.0 3.0 0.00 0.31 0.00 92 1009.9
20260510100100 51 292 1.0 5.0 0.00 0.31 0.00 93 1009.7
20260510094603 51 220 1.0 2.0 0.00 0.31 0.00 93 1009.5
20260510093059 51 202 0.0 2.0 0.00 0.31 0.00 93 1009.1
20260510091558 51 222 0.0 4.0 0.00 0.31 0.00 93 1009.1
20260510090119 51 225 1.0 2.0 0.00 0.31 0.00 92 1009.0
20260510084600 51 215 0.0 2.0 0.00 0.31 0.00 92 1008.9
20260510083105 51 0 0.0 2.0 0.00 0.31 0.00 91 1009.0
20260510081557 51 249 1.0 5.0 0.00 0.31 0.00 92 1009.2
20260510080059 52 198 1.0 5.0 0.00 0.31 0.00 91 1009.1
20260510074619 52 256 2.0 6.0 0.00 0.31 0.00 91 1008.9
20260510073056 52 159 1.0 3.0 0.00 0.31 0.00 91 1008.9
20260510071602 52 78 1.0 2.0 0.00 0.31 0.00 91 1009.0
20260510070057 52 152 1.0 4.0 0.00 0.31 0.00 91 1009.5
20260510064611 52 144 1.0 2.0 0.00 0.31 0.00 91 1009.8
20260510063103 52 185 1.0 3.0 0.00 0.31 0.00 90 1009.7
20260510061558 53 188 2.0 5.0 0.00 0.31 0.00 90 1009.7
20260510060100 53 211 1.0 4.0 0.00 0.31 0.00 90 1009.5
20260510054556 53 208 1.0 4.0 0.00 0.31 0.00 90 1009.5
20260510053056 53 206 2.0 5.0 0.00 0.31 0.00 89 1009.4
20260510051606 53 208 1.0 6.0 0.00 0.31 0.00 89 1009.2
20260510050059 53 173 2.0 7.0 0.00 0.31 0.00 89 1009.1
20260510044556 53 229 1.0 5.0 0.00 0.31 0.00 89 1009.2
20260510043103 53 140 2.0 5.0 0.00 0.31 0.00 88 1009.2
20260510041610 53 170 2.0 6.0 0.00 0.31 0.00 88 1009.3
20260510040058 53 175 1.0 8.0 0.00 0.31 0.00 88 1009.2
20260510034556 53 156 2.0 8.0 0.00 0.31 0.31 88 1009.2
20260510033058 53 200 2.0 5.0 0.00 0.31 0.31 89 1009.1
20260510031601 53 159 2.0 7.0 0.00 0.31 0.31 89 1009.0
20260510030100 53 155 2.0 7.0 0.00 0.31 0.31 89 1009.1
20260510024603 53 165 2.0 6.0 0.00 0.31 0.31 89 1009.3
20260510023057 53 191 1.0 3.0 0.00 0.31 0.31 90 1009.3
20260510021602 53 145 1.0 4.0 0.00 0.31 0.31 90 1009.2
20260510020057 53 152 2.0 5.0 0.00 0.31 0.31 90 1009.0
20260510014556 53 215 1.0 5.0 0.00 0.31 0.31 91 1009.3
20260510013107 53 152 2.0 7.0 0.00 0.31 0.31 92 1009.1
20260510011600 52 137 1.0 3.0 0.00 0.31 0.31 94 1009.4
20260510010110 52 19 1.0 2.0 0.00 0.31 0.31 93 1009.2
20260510004604 52 34 0.0 2.0 0.00 0.31 0.31 93 1009.2
20260510003105 52 0 0.0 2.0 0.00 0.31 0.31 93 1009.2
20260510001557 52 0 0.0 2.0 0.00 0.31 0.31 92 1008.9
20260510000130 52 0 0.0 2.0 0.00 0.31 0.31 93 1008.6
20260509234606 52 62 0.0 2.0 0.00 0.31 0.31 92 1008.6
20260509233054 52 43 0.0 2.0 0.00 0.31 0.31 92 1008.5
20260509231557 53 40 0.0 2.0 0.00 0.31 0.31 92 1008.3
20260509230055 53 133 0.0 2.0 0.00 0.31 0.31 92 1008.3
20260509224556 52 0 0.0 2.0 0.00 0.31 0.31 92 1008.4
20260509223055 52 78 0.0 2.0 0.00 0.31 0.31 92 1008.3
20260509221608 52 0 0.0 2.0 0.00 0.31 0.31 92 1008.4
20260509220106 52 0 0.0 2.0 0.00 0.31 0.31 93 1008.5
20260509214558 52 49 0.0 2.0 0.01 0.31 0.31 92 1008.8
20260509213059 52 0 0.0 2.0 0.01 0.31 0.31 93 1009.0
20260509211555 51 0 0.0 2.0 0.01 0.31 0.31 93 1009.0
20260509210100 51 0 0.0 2.0 0.01 0.31 0.31 92 1009.1
20260509204558 51 80 0.0 2.0 0.00 0.30 0.30 92 1009.2
20260509203100 51 133 0.0 2.0 0.00 0.30 0.30 92 1009.3
20260509201556 51 143 0.0 3.0 0.01 0.30 0.30 92 1009.6
20260509200105 51 198 0.0 6.0 0.01 0.30 0.30 92 1009.7
20260509194555 50 130 1.0 3.0 0.01 0.30 0.30 91 1009.7
20260509193121 50 193 0.0 2.0 0.01 0.30 0.30 92 1009.9
20260509191614 50 140 0.0 3.0 0.00 0.29 0.29 92 1009.9
20260509190111 49 0 0.0 3.0 0.02 0.29 0.29 91 1010.1
20260509184557 49 0 1.0 2.0 0.04 0.29 0.29 91 1010.1
20260509183105 49 0 0.0 0.0 0.05 0.29 0.29 91 1010.2
20260509181557 49 0 0.0 1.0 0.07 0.29 0.29 92 1010.3
20260509180105 48 0 0.0 0.0 0.05 0.27 0.27 91 1010.4
20260509174558 48 0 0.0 2.0 0.04 0.25 0.25 91 1010.6
20260509173105 48 88 0.0 3.0 0.03 0.24 0.24 90 1010.5
20260509171618 48 0 0.0 0.0 0.02 0.22 0.22 91 1010.6
20260509170100 47 0 0.0 2.0 0.02 0.22 0.22 90 1010.8
20260509164558 47 131 0.0 2.0 0.03 0.21 0.21 90 1011.0
20260509163104 47 0 0.0 2.0 0.04 0.21 0.21 91 1011.2
20260509161558 46 38 0.0 2.0 0.04 0.20 0.20 91 1011.5
20260509160101 45 0 0.0 2.0 0.06 0.20 0.20 90 1011.7
20260509154559 45 0 0.0 0.0 0.06 0.18 0.18 89 1012.0
20260509153109 45 0 0.0 0.0 0.07 0.17 0.17 89 1012.2
20260509151615 45 0 0.0 2.0 0.09 0.16 0.16 88 1012.2
20260509150058 45 63 0.0 2.0 0.09 0.14 0.14 87 1012.3
20260509144607 45 0 0.0 2.0 0.07 0.12 0.12 86 1012.3